Time,TemperatureF,DewpointF,PressureIn,WindDirection,WindDirectionDegrees,WindSpeedMPH,WindSpeedGustMPH,Humidity,HourlyPrecipIn,Conditions,Clouds,dailyrainin,SoftwareType,DateUTC
2013-09-22 00:04:00,54.2,47.5,29.94,SE,131,0.0,1.0,78,0.00,,,0.00,Wunderground v.1.15,2013-09-22 05:04:00,
2013-09-22 00:11:00,54.1,47.7,29.93,SE,131,0.0,1.0,79,0.00,,,0.00,Wunderground v.1.15,2013-09-22 05:11:00,
2013-09-22 00:16:00,53.9,47.2,29.93,SE,131,0.0,1.0,78,0.00,,,0.00,Wunderground v.1.15,2013-09-22 05:16:00,
2013-09-22 00:22:00,53.8,47.4,29.93,SE,131,0.0,1.0,79,0.00,,,0.00,Wunderground v.1.15,2013-09-22 05:22:00,
2013-09-22 00:28:00,53.7,47.3,29.93,SE,131,0.0,1.0,79,0.00,,,0.00,Wunderground v.1.15,2013-09-22 05:28:00,
2013-09-22 00:33:00,53.7,47.3,29.93,SE,131,0.0,1.0,79,0.00,,,0.00,Wunderground v.1.15,2013-09-22 05:33:00,
2013-09-22 00:39:00,53.9,47.5,29.93,SE,131,0.0,1.0,79,0.00,,,0.00,Wunderground v.1.15,2013-09-22 05:39:00,
2013-09-22 00:44:00,53.7,47.3,29.93,SE,131,0.0,1.0,79,0.00,,,0.00,Wunderground v.1.15,2013-09-22 05:44:00,
2013-09-22 00:50:00,53.5,47.5,29.93,SE,131,0.0,1.0,80,0.00,,,0.00,Wunderground v.1.15,2013-09-22 05:50:00,
2013-09-22 00:56:00,53.4,47.4,29.93,SE,131,0.0,1.0,80,0.00,,,0.00,Wunderground v.1.15,2013-09-22 05:56:00,
2013-09-22 01:02:00,53.2,47.2,29.93,SE,131,0.0,1.0,80,0.00,,,0.00,Wunderground v.1.15,2013-09-22 06:02:00,
2013-09-22 01:08:00,53.1,47.4,29.93,SE,131,0.0,1.0,81,0.00,,,0.00,Wunderground v.1.15,2013-09-22 06:08:00,
2013-09-22 01:13:00,52.9,47.2,29.93,SE,130,0.0,1.0,81,0.00,,,0.00,Wunderground v.1.15,2013-09-22 06:13:00,
2013-09-22 01:19:00,52.8,47.1,29.93,SE,131,0.0,1.0,81,0.00,,,0.00,Wunderground v.1.15,2013-09-22 06:19:00,
2013-09-22 01:25:00,52.7,47.0,29.93,SE,131,0.0,1.0,81,0.00,,,0.00,Wunderground v.1.15,2013-09-22 06:25:00,
2013-09-22 01:30:00,52.6,47.3,29.93,SE,131,0.0,1.0,82,0.00,,,0.00,Wunderground v.1.15,2013-09-22 06:30:00,
2013-09-22 01:36:00,52.6,47.3,29.93,SE,131,0.0,1.0,82,0.00,,,0.00,Wunderground v.1.15,2013-09-22 06:36:00,
2013-09-22 01:43:00,52.4,47.1,29.94,SE,131,0.0,1.0,82,0.00,,,0.00,Wunderground v.1.15,2013-09-22 06:43:00,
2013-09-22 01:49:00,52.3,47.0,29.93,SE,131,0.0,1.0,82,0.00,,,0.00,Wunderground v.1.15,2013-09-22 06:49:00,
2013-09-22 01:54:00,52.2,47.2,29.94,SE,131,0.0,1.0,83,0.00,,,0.00,Wunderground v.1.15,2013-09-22 06:54:00,
2013-09-22 02:00:00,51.9,46.9,29.93,SE,131,0.0,1.0,83,0.00,,,0.00,Wunderground v.1.15,2013-09-22 07:00:00,
2013-09-22 02:05:00,52.0,47.0,29.94,SE,133,0.0,1.0,83,0.00,,,0.00,Wunderground v.1.15,2013-09-22 07:05:00,
2013-09-22 02:11:00,52.0,47.0,29.94,SE,132,0.0,1.0,83,0.00,,,0.00,Wunderground v.1.15,2013-09-22 07:11:00,
2013-09-22 02:16:00,51.9,46.9,29.94,SE,132,0.0,1.0,83,0.00,,,0.00,Wunderground v.1.15,2013-09-22 07:16:00,
2013-09-22 02:22:00,51.8,46.8,29.94,SE,132,0.0,1.0,83,0.00,,,0.00,Wunderground v.1.15,2013-09-22 07:22:00,
2013-09-22 02:28:00,51.8,46.8,29.94,SE,132,0.0,1.0,83,0.00,,,0.00,Wunderground v.1.15,2013-09-22 07:28:00,
2013-09-22 02:34:00,51.9,46.9,29.94,SE,132,0.0,1.0,83,0.00,,,0.00,Wunderground v.1.15,2013-09-22 07:34:00,
2013-09-22 02:40:00,51.8,46.8,29.94,SE,132,0.0,1.0,83,0.00,,,0.00,Wunderground v.1.15,2013-09-22 07:40:00,
2013-09-22 02:45:00,51.6,46.6,29.94,SE,132,0.0,1.0,83,0.00,,,0.00,Wunderground v.1.15,2013-09-22 07:45:00,
2013-09-22 02:51:00,51.3,46.6,29.94,SE,133,0.0,1.0,84,0.00,,,0.00,Wunderground v.1.15,2013-09-22 07:51:00,
2013-09-22 02:56:00,51.3,46.6,29.94,SE,132,0.0,1.0,84,0.00,,,0.00,Wunderground v.1.15,2013-09-22 07:56:00,
2013-09-22 03:01:00,51.2,46.5,29.94,SE,133,0.0,1.0,84,0.00,,,0.00,Wunderground v.1.15,2013-09-22 08:01:00,
2013-09-22 03:07:00,51.1,46.7,29.94,SE,132,0.0,1.0,85,0.00,,,0.00,Wunderground v.1.15,2013-09-22 08:07:00,
2013-09-22 03:13:00,51.0,46.3,29.94,SE,132,0.0,1.0,84,0.00,,,0.00,Wunderground v.1.15,2013-09-22 08:13:00,
2013-09-22 03:18:00,51.0,46.6,29.94,SE,132,0.0,1.0,85,0.00,,,0.00,Wunderground v.1.15,2013-09-22 08:18:00,
2013-09-22 03:24:00,51.1,46.4,29.94,SE,132,0.0,1.0,84,0.00,,,0.00,Wunderground v.1.15,2013-09-22 08:24:00,
2013-09-22 03:30:00,51.0,46.6,29.94,SE,132,0.0,1.0,85,0.00,,,0.00,Wunderground v.1.15,2013-09-22 08:30:00,
2013-09-22 03:36:00,51.1,46.7,29.94,SE,132,0.0,1.0,85,0.00,,,0.00,Wunderground v.1.15,2013-09-22 08:36:00,
2013-09-22 03:41:00,51.2,46.8,29.94,SE,132,0.0,1.0,85,0.00,,,0.00,Wunderground v.1.15,2013-09-22 08:41:00,
2013-09-22 03:47:00,51.1,46.7,29.94,SE,132,0.0,1.0,85,0.00,,,0.00,Wunderground v.1.15,2013-09-22 08:47:00,
2013-09-22 03:53:00,51.0,46.6,29.94,SE,132,0.0,1.0,85,0.00,,,0.00,Wunderground v.1.15,2013-09-22 08:53:00,
2013-09-22 03:59:00,50.9,46.6,29.94,SE,132,0.0,1.0,85,0.00,,,0.00,Wunderground v.1.15,2013-09-22 08:59:00,
2013-09-22 04:04:00,50.8,46.5,29.94,SE,132,0.0,1.0,85,0.00,,,0.00,Wunderground v.1.15,2013-09-22 09:04:00,
2013-09-22 04:10:00,50.5,46.5,29.94,SE,133,0.0,1.0,86,0.00,,,0.00,Wunderground v.1.15,2013-09-22 09:10:00,
2013-09-22 04:16:00,50.3,46.6,29.94,SE,132,0.0,1.0,87,0.00,,,0.00,Wunderground v.1.15,2013-09-22 09:16:00,
2013-09-22 04:21:00,50.4,46.7,29.94,SE,132,0.0,1.0,87,0.00,,,0.00,Wunderground v.1.15,2013-09-22 09:21:00,
2013-09-22 04:27:00,50.3,46.6,29.94,SE,132,0.0,1.0,87,0.00,,,0.00,Wunderground v.1.15,2013-09-22 09:27:00,
2013-09-22 04:33:00,50.3,46.6,29.94,SE,133,0.0,1.0,87,0.00,,,0.00,Wunderground v.1.15,2013-09-22 09:33:00,
2013-09-22 04:39:00,50.4,46.7,29.95,SE,132,0.0,1.0,87,0.00,,,0.00,Wunderground v.1.15,2013-09-22 09:39:00,
2013-09-22 04:45:00,50.4,46.7,29.95,SE,132,0.0,1.0,87,0.00,,,0.00,Wunderground v.1.15,2013-09-22 09:45:00,
2013-09-22 04:50:00,50.3,46.6,29.94,SE,132,0.0,1.0,87,0.00,,,0.00,Wunderground v.1.15,2013-09-22 09:50:00,
2013-09-22 04:56:00,50.3,46.6,29.94,SE,131,0.0,1.0,87,0.00,,,0.00,Wunderground v.1.15,2013-09-22 09:56:00,
2013-09-22 05:02:00,50.4,46.7,29.95,SE,132,0.0,1.0,87,0.00,,,0.00,Wunderground v.1.15,2013-09-22 10:02:00,
2013-09-22 05:07:00,50.4,46.7,29.95,SE,139,0.0,1.0,87,0.00,,,0.00,Wunderground v.1.15,2013-09-22 10:07:00,
2013-09-22 05:13:00,50.3,46.6,29.95,SE,139,0.0,1.0,87,0.00,,,0.00,Wunderground v.1.15,2013-09-22 10:13:00,
2013-09-22 05:19:00,50.4,46.7,29.95,SE,139,0.0,1.0,87,0.00,,,0.00,Wunderground v.1.15,2013-09-22 10:19:00,
2013-09-22 05:25:00,50.5,46.8,29.95,SE,139,0.0,1.0,87,0.00,,,0.00,Wunderground v.1.15,2013-09-22 10:25:00,
2013-09-22 05:30:00,50.3,46.6,29.95,SE,139,0.0,1.0,87,0.00,,,0.00,Wunderground v.1.15,2013-09-22 10:30:00,
2013-09-22 05:36:00,50.2,46.5,29.95,SE,139,0.0,1.0,87,0.00,,,0.00,Wunderground v.1.15,2013-09-22 10:36:00,
2013-09-22 05:43:00,50.0,46.3,29.95,SE,139,0.0,1.0,87,0.00,,,0.00,Wunderground v.1.15,2013-09-22 10:43:00,
2013-09-22 05:49:00,49.8,46.4,29.95,SE,139,0.0,1.0,88,0.00,,,0.00,Wunderground v.1.15,2013-09-22 10:49:00,
2013-09-22 06:05:00,50.1,46.7,29.95,SE,140,0.0,1.0,88,0.00,,,0.00,Wunderground v.1.15,2013-09-22 11:05:00,
2013-09-22 06:12:00,50.0,46.6,29.95,SE,140,0.0,1.0,88,0.00,,,0.00,Wunderground v.1.15,2013-09-22 11:12:00,
2013-09-22 06:18:00,49.9,46.5,29.95,SE,140,0.0,1.0,88,0.00,,,0.00,Wunderground v.1.15,2013-09-22 11:18:00,
2013-09-22 06:23:00,49.9,46.8,29.95,SE,139,0.0,1.0,89,0.00,,,0.00,Wunderground v.1.15,2013-09-22 11:23:00,
2013-09-22 06:29:00,50.0,46.6,29.96,SE,139,0.0,1.0,88,0.00,,,0.00,Wunderground v.1.15,2013-09-22 11:29:00,
2013-09-22 06:35:00,50.0,46.6,29.96,SE,139,0.0,1.0,88,0.00,,,0.00,Wunderground v.1.15,2013-09-22 11:35:00,
2013-09-22 06:41:00,49.8,46.4,29.96,SE,140,0.0,1.0,88,0.00,,,0.00,Wunderground v.1.15,2013-09-22 11:41:00,
2013-09-22 06:46:00,49.7,46.6,29.96,SE,139,0.0,1.0,89,0.00,,,0.00,Wunderground v.1.15,2013-09-22 11:46:00,
2013-09-22 06:52:00,49.5,46.4,29.96,SE,139,0.0,1.0,89,0.00,,,0.00,Wunderground v.1.15,2013-09-22 11:52:00,
2013-09-22 06:58:00,49.3,46.2,29.96,SE,139,0.0,1.0,89,0.00,,,0.00,Wunderground v.1.15,2013-09-22 11:58:00,
2013-09-22 07:04:00,49.3,46.5,29.96,SE,139,0.0,1.0,90,0.00,,,0.00,Wunderground v.1.15,2013-09-22 12:04:00,
2013-09-22 07:09:00,49.3,46.5,29.97,SE,140,0.0,1.0,90,0.00,,,0.00,Wunderground v.1.15,2013-09-22 12:09:00,
2013-09-22 07:16:00,49.2,46.4,29.97,SE,140,0.0,1.0,90,0.00,,,0.00,Wunderground v.1.15,2013-09-22 12:16:00,
2013-09-22 07:22:00,49.4,46.6,29.97,SE,139,0.0,1.0,90,0.00,,,0.00,Wunderground v.1.15,2013-09-22 12:22:00,
2013-09-22 07:28:00,49.5,46.7,29.97,SE,139,0.0,1.0,90,0.00,,,0.00,Wunderground v.1.15,2013-09-22 12:28:00,
2013-09-22 07:33:00,49.6,46.8,29.97,SE,140,0.0,1.0,90,0.00,,,0.00,Wunderground v.1.15,2013-09-22 12:33:00,
2013-09-22 07:38:00,49.9,46.8,29.97,SE,145,0.0,1.0,89,0.00,,,0.00,Wunderground v.1.15,2013-09-22 12:38:00,
2013-09-22 07:44:00,50.1,47.0,29.97,SE,145,0.0,1.0,89,0.00,,,0.00,Wunderground v.1.15,2013-09-22 12:44:00,
2013-09-22 07:51:00,50.5,47.4,29.97,SE,145,0.0,1.0,89,0.00,,,0.00,Wunderground v.1.15,2013-09-22 12:51:00,
2013-09-22 07:57:00,50.8,47.7,29.97,SE,145,0.0,1.0,89,0.00,,,0.00,Wunderground v.1.15,2013-09-22 12:57:00,
2013-09-22 08:02:00,51.2,47.8,29.97,SE,145,0.0,1.0,88,0.00,,,0.00,Wunderground v.1.15,2013-09-22 13:02:00,
2013-09-22 08:07:00,51.6,47.9,29.97,SE,145,0.0,1.0,87,0.00,,,0.00,Wunderground v.1.15,2013-09-22 13:07:00,
2013-09-22 08:13:00,52.0,47.9,29.98,SE,145,0.0,1.0,86,0.00,,,0.00,Wunderground v.1.15,2013-09-22 13:13:00,
2013-09-22 08:19:00,52.6,48.5,29.98,SE,145,0.0,1.0,86,0.00,,,0.00,Wunderground v.1.15,2013-09-22 13:19:00,
2013-09-22 08:24:00,53.1,48.7,29.98,NW,315,0.0,1.0,85,0.00,,,0.00,Wunderground v.1.15,2013-09-22 13:24:00,
2013-09-22 08:30:00,53.7,49.0,29.98,NW,316,0.0,2.0,84,0.00,,,0.00,Wunderground v.1.15,2013-09-22 13:30:00,
2013-09-22 08:36:00,54.2,49.1,29.98,West,275,0.0,2.0,83,0.00,,,0.00,Wunderground v.1.15,2013-09-22 13:36:00,
2013-09-22 08:42:00,54.8,49.1,29.98,South,170,1.0,1.0,81,0.00,,,0.00,Wunderground v.1.15,2013-09-22 13:42:00,
2013-09-22 08:47:00,55.7,48.9,29.98,WSW,255,1.0,2.0,78,0.00,,,0.00,Wunderground v.1.15,2013-09-22 13:47:00,
2013-09-22 08:53:00,56.4,49.6,29.98,WNW,286,2.0,2.0,78,0.00,,,0.00,Wunderground v.1.15,2013-09-22 13:53:00,
2013-09-22 08:58:00,57.0,49.5,29.98,West,281,1.0,3.0,76,0.00,,,0.00,Wunderground v.1.15,2013-09-22 13:58:00,
2013-09-22 09:04:00,57.4,49.5,29.98,WNW,290,1.0,2.0,75,0.00,,,0.00,Wunderground v.1.15,2013-09-22 14:04:00,
2013-09-22 09:10:00,57.9,50.4,29.98,SSE,160,1.0,1.0,76,0.00,,,0.00,Wunderground v.1.15,2013-09-22 14:10:00,
2013-09-22 09:16:00,58.4,50.5,29.98,West,266,1.0,4.0,75,0.00,,,0.00,Wunderground v.1.15,2013-09-22 14:16:00,
2013-09-22 09:21:00,58.9,50.6,29.98,NW,309,2.0,2.0,74,0.00,,,0.00,Wunderground v.1.15,2013-09-22 14:21:00,
2013-09-22 09:27:00,59.6,51.7,29.98,WNW,290,1.0,3.0,75,0.00,,,0.00,Wunderground v.1.15,2013-09-22 14:27:00,
2013-09-22 09:33:00,60.2,51.5,29.98,West,270,1.0,1.0,73,0.00,,,0.00,Wunderground v.1.15,2013-09-22 14:33:00,
2013-09-22 09:39:00,60.9,51.8,29.98,West,269,1.0,2.0,72,0.00,,,0.00,Wunderground v.1.15,2013-09-22 14:39:00,
2013-09-22 09:43:00,61.4,52.3,29.98,ENE,72,1.0,1.0,72,0.00,,,0.00,Wunderground v.1.15,2013-09-22 14:43:00,
2013-09-22 09:49:00,62.1,52.6,29.98,South,178,1.0,1.0,71,0.00,,,0.00,Wunderground v.1.15,2013-09-22 14:49:00,
2013-09-22 09:55:00,62.7,53.2,29.98,West,280,1.0,2.0,71,0.00,,,0.00,Wunderground v.1.15,2013-09-22 14:55:00,
2013-09-22 10:01:00,63.1,53.2,29.98,West,274,1.0,2.0,70,0.00,,,0.00,Wunderground v.1.15,2013-09-22 15:01:00,
2013-09-22 10:07:00,63.7,53.7,29.98,East,101,1.0,2.0,70,0.00,,,0.00,Wunderground v.1.15,2013-09-22 15:07:00,
2013-09-22 10:12:00,64.6,54.2,29.98,NE,47,1.0,3.0,69,0.00,,,0.00,Wunderground v.1.15,2013-09-22 15:12:00,
2013-09-22 10:18:00,65.3,53.6,29.98,NE,35,1.0,3.0,66,0.00,,,0.00,Wunderground v.1.15,2013-09-22 15:18:00,
2013-09-22 10:24:00,65.6,54.3,29.98,South,186,0.0,1.0,67,0.00,,,0.00,Wunderground v.1.15,2013-09-22 15:24:00,
2013-09-22 10:29:00,66.1,54.0,29.99,North,6,0.0,1.0,65,0.00,,,0.00,Wunderground v.1.15,2013-09-22 15:29:00,
2013-09-22 10:35:00,67.2,54.2,29.98,WNW,293,2.0,4.0,63,0.00,,,0.00,Wunderground v.1.15,2013-09-22 15:35:00,
2013-09-22 10:41:00,67.6,53.7,29.98,NNE,29,2.0,3.0,61,0.00,,,0.00,Wunderground v.1.15,2013-09-22 15:41:00,
2013-09-22 10:47:00,67.9,54.0,29.98,ENE,72,1.0,3.0,61,0.00,,,0.00,Wunderground v.1.15,2013-09-22 15:47:00,
2013-09-22 10:51:00,68.8,54.8,29.98,NW,309,0.0,1.0,61,0.00,,,0.00,Wunderground v.1.15,2013-09-22 15:51:00,
2013-09-22 10:56:00,69.4,54.4,29.98,ENE,60,1.0,2.0,59,0.00,,,0.00,Wunderground v.1.15,2013-09-22 15:56:00,
2013-09-22 11:02:00,69.6,54.2,29.98,NNW,332,2.0,2.0,58,0.00,,,0.00,Wunderground v.1.15,2013-09-22 16:02:00,
2013-09-22 11:07:00,69.9,54.9,29.97,SSW,208,2.0,2.0,59,0.00,,,0.00,Wunderground v.1.15,2013-09-22 16:07:00,
2013-09-22 11:13:00,70.2,54.2,29.98,North,359,2.0,3.0,57,0.00,,,0.00,Wunderground v.1.15,2013-09-22 16:13:00,
2013-09-22 11:18:00,70.7,54.2,29.97,NNE,30,2.0,4.0,56,0.00,,,0.00,Wunderground v.1.15,2013-09-22 16:18:00,
2013-09-22 11:25:00,71.5,55.0,29.97,NW,312,1.0,2.0,56,0.00,,,0.00,Wunderground v.1.15,2013-09-22 16:25:00,
2013-09-22 11:31:00,71.3,54.8,29.97,NE,51,1.0,1.0,56,0.00,,,0.00,Wunderground v.1.15,2013-09-22 16:31:00,
2013-09-22 11:36:00,71.6,55.1,29.97,ENE,59,2.0,2.0,56,0.00,,,0.00,Wunderground v.1.15,2013-09-22 16:36:00,
2013-09-22 11:41:00,72.2,55.1,29.97,North,9,2.0,5.0,55,0.00,,,0.00,Wunderground v.1.15,2013-09-22 16:41:00,
2013-09-22 11:47:00,72.6,55.5,29.97,West,273,2.0,5.0,55,0.00,,,0.00,Wunderground v.1.15,2013-09-22 16:47:00,
2013-09-22 11:53:00,72.9,55.8,29.97,West,274,2.0,3.0,55,0.00,,,0.00,Wunderground v.1.15,2013-09-22 16:53:00,
2013-09-22 11:59:00,72.6,55.0,29.97,SW,214,2.0,3.0,54,0.00,,,0.00,Wunderground v.1.15,2013-09-22 16:59:00,
2013-09-22 12:04:00,73.1,56.0,29.96,East,79,1.0,2.0,55,0.00,,,0.00,Wunderground v.1.15,2013-09-22 17:04:00,
2013-09-22 12:10:00,73.6,55.9,29.96,ESE,104,0.0,1.0,54,0.00,,,0.00,Wunderground v.1.15,2013-09-22 17:10:00,
2013-09-22 12:15:00,73.7,55.5,29.96,SSW,211,1.0,2.0,53,0.00,,,0.00,Wunderground v.1.15,2013-09-22 17:15:00,
2013-09-22 12:21:00,73.5,55.8,29.95,ENE,68,2.0,3.0,54,0.00,,,0.00,Wunderground v.1.15,2013-09-22 17:21:00,
2013-09-22 12:27:00,73.7,55.5,29.95,ENE,58,2.0,6.0,53,0.00,,,0.00,Wunderground v.1.15,2013-09-22 17:27:00,
2013-09-22 12:32:00,73.9,55.7,29.95,North,352,3.0,5.0,53,0.00,,,0.00,Wunderground v.1.15,2013-09-22 17:32:00,
2013-09-22 12:38:00,74.2,56.5,29.95,ENE,63,2.0,5.0,54,0.00,,,0.00,Wunderground v.1.15,2013-09-22 17:38:00,
2013-09-22 12:44:00,74.3,55.5,29.94,ENE,76,1.0,6.0,52,0.00,,,0.00,Wunderground v.1.15,2013-09-22 17:44:00,
2013-09-22 12:50:00,74.2,55.4,29.94,East,80,3.0,3.0,52,0.00,,,0.00,Wunderground v.1.15,2013-09-22 17:50:00,
2013-09-22 12:55:00,74.7,56.4,29.94,North,360,2.0,3.0,53,0.00,,,0.00,Wunderground v.1.15,2013-09-22 17:55:00,
2013-09-22 13:02:00,75.0,55.6,29.94,NE,48,2.0,2.0,51,0.00,,,0.00,Wunderground v.1.15,2013-09-22 18:02:00,
2013-09-22 13:07:00,75.1,56.8,29.94,North,353,1.0,2.0,53,0.00,,,0.00,Wunderground v.1.15,2013-09-22 18:07:00,
2013-09-22 13:12:00,74.9,55.6,29.93,ENE,65,1.0,4.0,51,0.00,,,0.00,Wunderground v.1.15,2013-09-22 18:12:00,
2013-09-22 13:18:00,74.6,55.8,29.94,NW,325,3.0,5.0,52,0.00,,,0.00,Wunderground v.1.15,2013-09-22 18:18:00,
2013-09-22 13:24:00,74.6,55.8,29.93,SW,231,2.0,3.0,52,0.00,,,0.00,Wunderground v.1.15,2013-09-22 18:24:00,
2013-09-22 13:29:00,74.6,56.9,29.93,NW,316,2.0,2.0,54,0.00,,,0.00,Wunderground v.1.15,2013-09-22 18:29:00,
2013-09-22 13:35:00,74.6,56.3,29.93,NNW,332,2.0,5.0,53,0.00,,,0.00,Wunderground v.1.15,2013-09-22 18:35:00,
2013-09-22 13:41:00,74.9,56.1,29.93,ENE,61,1.0,1.0,52,0.00,,,0.00,Wunderground v.1.15,2013-09-22 18:41:00,
2013-09-22 13:47:00,75.1,55.7,29.92,NE,51,1.0,2.0,51,0.00,,,0.00,Wunderground v.1.15,2013-09-22 18:47:00,
2013-09-22 13:52:00,74.9,56.1,29.92,NNW,327,2.0,3.0,52,0.00,,,0.00,Wunderground v.1.15,2013-09-22 18:52:00,
2013-09-22 13:58:00,75.0,56.7,29.92,NE,44,3.0,3.0,53,0.00,,,0.00,Wunderground v.1.15,2013-09-22 18:58:00,
2013-09-22 14:04:00,75.0,56.2,29.92,NNW,330,2.0,4.0,52,0.00,,,0.00,Wunderground v.1.15,2013-09-22 19:04:00,
2013-09-22 14:10:00,75.0,55.6,29.91,NW,324,2.0,2.0,51,0.00,,,0.00,Wunderground v.1.15,2013-09-22 19:10:00,
2013-09-22 14:16:00,75.1,55.7,29.91,West,274,2.0,3.0,51,0.00,,,0.00,Wunderground v.1.15,2013-09-22 19:16:00,
2013-09-22 14:21:00,75.3,57.5,29.91,North,5,2.0,3.0,54,0.00,,,0.00,Wunderground v.1.15,2013-09-22 19:21:00,
2013-09-22 14:27:00,75.2,55.8,29.91,ENE,65,3.0,4.0,51,0.00,,,0.00,Wunderground v.1.15,2013-09-22 19:27:00,
2013-09-22 14:33:00,75.2,55.3,29.91,NE,46,3.0,5.0,50,0.00,,,0.00,Wunderground v.1.15,2013-09-22 19:33:00,
2013-09-22 14:39:00,75.2,56.9,29.90,NE,34,3.0,5.0,53,0.00,,,0.00,Wunderground v.1.15,2013-09-22 19:39:00,
2013-09-22 14:44:00,75.2,55.8,29.90,NW,316,3.0,5.0,51,0.00,,,0.00,Wunderground v.1.15,2013-09-22 19:44:00,
2013-09-22 14:49:00,75.2,55.3,29.90,West,281,3.0,3.0,50,0.00,,,0.00,Wunderground v.1.15,2013-09-22 19:49:00,
2013-09-22 14:56:00,75.3,58.0,29.90,WNW,287,2.0,3.0,55,0.00,,,0.00,Wunderground v.1.15,2013-09-22 19:56:00,
2013-09-22 15:02:00,75.7,55.7,29.89,NNE,31,2.0,2.0,50,0.00,,,0.00,Wunderground v.1.15,2013-09-22 20:02:00,
2013-09-22 15:07:00,75.6,56.2,29.89,North,358,2.0,3.0,51,0.00,,,0.00,Wunderground v.1.15,2013-09-22 20:07:00,
2013-09-22 15:13:00,75.7,56.8,29.89,NW,308,2.0,3.0,52,0.00,,,0.00,Wunderground v.1.15,2013-09-22 20:13:00,
2013-09-22 15:19:00,75.7,55.7,29.89,NE,47,2.0,3.0,50,0.00,,,0.00,Wunderground v.1.15,2013-09-22 20:19:00,
2013-09-22 15:25:00,75.7,56.3,29.88,NNE,22,3.0,5.0,51,0.00,,,0.00,Wunderground v.1.15,2013-09-22 20:25:00,
2013-09-22 15:31:00,75.7,56.8,29.88,NW,317,3.0,4.0,52,0.00,,,0.00,Wunderground v.1.15,2013-09-22 20:31:00,
2013-09-22 15:37:00,75.7,56.8,29.88,NW,311,3.0,4.0,52,0.00,,,0.00,Wunderground v.1.15,2013-09-22 20:37:00,
2013-09-22 15:43:00,75.7,55.7,29.88,ENE,57,3.0,4.0,50,0.00,,,0.00,Wunderground v.1.15,2013-09-22 20:43:00,
2013-09-22 15:49:00,75.7,56.3,29.88,NW,323,3.0,4.0,51,0.00,,,0.00,Wunderground v.1.15,2013-09-22 20:49:00,
2013-09-22 15:54:00,75.9,57.5,29.88,ENE,77,3.0,5.0,53,0.00,,,0.00,Wunderground v.1.15,2013-09-22 20:54:00,
2013-09-22 16:01:00,75.9,57.0,29.87,ENE,57,2.0,2.0,52,0.00,,,0.00,Wunderground v.1.15,2013-09-22 21:01:00,
2013-09-22 16:06:00,75.9,56.5,29.87,NW,304,3.0,4.0,51,0.00,,,0.00,Wunderground v.1.15,2013-09-22 21:06:00,
2013-09-22 16:12:00,75.9,56.5,29.87,NW,326,3.0,5.0,51,0.00,,,0.00,Wunderground v.1.15,2013-09-22 21:12:00,
2013-09-22 16:18:00,75.7,56.3,29.87,North,356,3.0,5.0,51,0.00,,,0.00,Wunderground v.1.15,2013-09-22 21:18:00,
2013-09-22 16:24:00,75.9,57.0,29.87,WNW,284,2.0,4.0,52,0.00,,,0.00,Wunderground v.1.15,2013-09-22 21:24:00,
2013-09-22 16:29:00,75.9,56.5,29.87,NE,44,2.0,3.0,51,0.00,,,0.00,Wunderground v.1.15,2013-09-22 21:29:00,
2013-09-22 16:35:00,76.0,56.6,29.87,NE,48,3.0,3.0,51,0.00,,,0.00,Wunderground v.1.15,2013-09-22 21:35:00,
2013-09-22 16:40:00,75.9,57.0,29.87,ENE,66,3.0,3.0,52,0.00,,,0.00,Wunderground v.1.15,2013-09-22 21:40:00,
2013-09-22 16:46:00,75.9,56.5,29.87,WNW,293,3.0,4.0,51,0.00,,,0.00,Wunderground v.1.15,2013-09-22 21:46:00,
2013-09-22 16:52:00,75.7,56.3,29.86,WNW,298,2.0,2.0,51,0.00,,,0.00,Wunderground v.1.15,2013-09-22 21:52:00,
2013-09-22 16:58:00,75.7,56.8,29.86,East,79,2.0,4.0,52,0.00,,,0.00,Wunderground v.1.15,2013-09-22 21:58:00,
2013-09-22 17:03:00,75.7,56.8,29.86,ENE,75,2.0,4.0,52,0.00,,,0.00,Wunderground v.1.15,2013-09-22 22:03:00,
2013-09-22 17:10:00,75.8,56.9,29.86,NNW,340,2.0,4.0,52,0.00,,,0.00,Wunderground v.1.15,2013-09-22 22:10:00,
2013-09-22 17:16:00,75.7,56.8,29.86,WNW,294,2.0,6.0,52,0.00,,,0.00,Wunderground v.1.15,2013-09-22 22:16:00,
2013-09-22 17:21:00,75.8,56.9,29.86,NW,304,2.0,3.0,52,0.00,,,0.00,Wunderground v.1.15,2013-09-22 22:21:00,
2013-09-22 17:27:00,75.8,56.9,29.87,SSE,160,2.0,3.0,52,0.00,,,0.00,Wunderground v.1.15,2013-09-22 22:27:00,
2013-09-22 17:33:00,75.6,57.8,29.86,NW,326,2.0,2.0,54,0.00,,,0.00,Wunderground v.1.15,2013-09-22 22:33:00,
2013-09-22 17:38:00,75.5,57.7,29.86,NW,318,1.0,2.0,54,0.00,,,0.00,Wunderground v.1.15,2013-09-22 22:38:00,
2013-09-22 17:43:00,75.2,56.9,29.86,SSW,207,1.0,3.0,53,0.00,,,0.00,Wunderground v.1.15,2013-09-22 22:43:00,
2013-09-22 17:49:00,74.9,57.1,29.86,South,184,2.0,3.0,54,0.00,,,0.00,Wunderground v.1.15,2013-09-22 22:49:00,
2013-09-22 17:55:00,74.7,56.9,29.86,South,191,1.0,2.0,54,0.00,,,0.00,Wunderground v.1.15,2013-09-22 22:55:00,
2013-09-22 18:01:00,74.4,56.7,29.87,West,259,1.0,1.0,54,0.00,,,0.00,Wunderground v.1.15,2013-09-22 23:01:00,
2013-09-22 18:06:00,74.1,56.9,29.87,South,183,1.0,3.0,55,0.00,,,0.00,Wunderground v.1.15,2013-09-22 23:06:00,
2013-09-22 18:12:00,73.9,56.7,29.87,NNE,18,1.0,1.0,55,0.00,,,0.00,Wunderground v.1.15,2013-09-22 23:12:00,
2013-09-22 18:18:00,73.7,57.0,29.87,SSE,155,1.0,1.0,56,0.00,,,0.00,Wunderground v.1.15,2013-09-22 23:18:00,
2013-09-22 18:23:00,73.4,56.7,29.87,NNE,20,1.0,3.0,56,0.00,,,0.00,Wunderground v.1.15,2013-09-22 23:23:00,
2013-09-22 18:28:00,73.1,56.5,29.87,SSE,165,1.0,3.0,56,0.00,,,0.00,Wunderground v.1.15,2013-09-22 23:28:00,
2013-09-22 18:34:00,72.7,56.6,29.87,SSE,160,1.0,1.0,57,0.00,,,0.00,Wunderground v.1.15,2013-09-22 23:34:00,
2013-09-22 18:40:00,72.4,56.8,29.87,South,171,1.0,1.0,58,0.00,,,0.00,Wunderground v.1.15,2013-09-22 23:40:00,
2013-09-22 18:46:00,72.0,56.4,29.87,NW,306,1.0,1.0,58,0.00,,,0.00,Wunderground v.1.15,2013-09-22 23:46:00,
2013-09-22 18:51:00,71.5,56.4,29.87,South,172,0.0,1.0,59,0.00,,,0.00,Wunderground v.1.15,2013-09-22 23:51:00,
2013-09-22 18:57:00,71.0,56.4,29.87,South,172,1.0,1.0,60,0.00,,,0.00,Wunderground v.1.15,2013-09-22 23:57:00,
2013-09-22 19:02:00,70.5,55.9,29.87,South,169,1.0,1.0,60,0.00,,,0.00,Wunderground v.1.15,2013-09-23 00:02:00,
2013-09-22 19:08:00,69.9,55.8,29.87,SSE,150,1.0,1.0,61,0.00,,,0.00,Wunderground v.1.15,2013-09-23 00:08:00,
2013-09-22 19:14:00,69.3,55.7,29.87,SSE,157,0.0,1.0,62,0.00,,,0.00,Wunderground v.1.15,2013-09-23 00:14:00,
2013-09-22 19:19:00,68.8,55.2,29.87,WNW,295,0.0,1.0,62,0.00,,,0.00,Wunderground v.1.15,2013-09-23 00:19:00,
2013-09-22 19:24:00,68.4,55.3,29.87,SSW,200,0.0,2.0,63,0.00,,,0.00,Wunderground v.1.15,2013-09-23 00:24:00,
2013-09-22 19:30:00,68.1,55.5,29.87,SSE,165,0.0,1.0,64,0.00,,,0.00,Wunderground v.1.15,2013-09-23 00:30:00,
2013-09-22 19:36:00,67.7,55.1,29.87,South,169,0.0,1.0,64,0.00,,,0.00,Wunderground v.1.15,2013-09-23 00:36:00,
2013-09-22 19:42:00,67.5,54.9,29.87,South,169,0.0,1.0,64,0.00,,,0.00,Wunderground v.1.15,2013-09-23 00:42:00,
2013-09-22 19:47:00,67.1,54.9,29.87,South,169,0.0,1.0,65,0.00,,,0.00,Wunderground v.1.15,2013-09-23 00:47:00,
2013-09-22 19:53:00,66.7,55.0,29.87,South,169,0.0,1.0,66,0.00,,,0.00,Wunderground v.1.15,2013-09-23 00:53:00,
2013-09-22 19:58:00,66.4,55.1,29.87,South,169,0.0,1.0,67,0.00,,,0.00,Wunderground v.1.15,2013-09-23 00:58:00,
2013-09-22 20:04:00,66.1,54.8,29.88,South,169,0.0,1.0,67,0.00,,,0.00,Wunderground v.1.15,2013-09-23 01:04:00,
2013-09-22 20:10:00,65.8,54.9,29.88,South,169,0.0,1.0,68,0.00,,,0.00,Wunderground v.1.15,2013-09-23 01:10:00,
2013-09-22 20:15:00,65.5,54.7,29.88,South,169,0.0,1.0,68,0.00,,,0.00,Wunderground v.1.15,2013-09-23 01:15:00,
2013-09-22 20:21:00,65.2,54.8,29.88,South,169,0.0,1.0,69,0.00,,,0.00,Wunderground v.1.15,2013-09-23 01:21:00,
2013-09-22 20:26:00,65.0,55.0,29.89,South,169,0.0,1.0,70,0.00,,,0.00,Wunderground v.1.15,2013-09-23 01:26:00,
2013-09-22 20:32:00,64.7,54.7,29.89,SSE,167,0.0,1.0,70,0.00,,,0.00,Wunderground v.1.15,2013-09-23 01:32:00,
2013-09-22 20:37:00,64.5,54.5,29.89,SSE,161,0.0,1.0,70,0.00,,,0.00,Wunderground v.1.15,2013-09-23 01:37:00,
2013-09-22 20:43:00,64.3,54.3,29.89,SSE,160,0.0,1.0,70,0.00,,,0.00,Wunderground v.1.15,2013-09-23 01:43:00,
2013-09-22 20:49:00,64.3,54.3,29.89,SSE,161,0.0,1.0,70,0.00,,,0.00,Wunderground v.1.15,2013-09-23 01:49:00,
2013-09-22 20:56:00,64.1,54.1,29.89,SSE,161,0.0,1.0,70,0.00,,,0.00,Wunderground v.1.15,2013-09-23 01:56:00,
2013-09-22 21:02:00,63.9,53.9,29.89,SSE,160,0.0,1.0,70,0.00,,,0.00,Wunderground v.1.15,2013-09-23 02:02:00,
2013-09-22 21:07:00,64.1,54.1,29.89,SSE,161,0.0,1.0,70,0.00,,,0.00,Wunderground v.1.15,2013-09-23 02:07:00,
2013-09-22 21:13:00,64.1,54.1,29.89,SSE,160,0.0,1.0,70,0.00,,,0.00,Wunderground v.1.15,2013-09-23 02:13:00,
2013-09-22 21:19:00,64.0,54.0,29.90,SSE,160,0.0,1.0,70,0.00,,,0.00,Wunderground v.1.15,2013-09-23 02:19:00,
2013-09-22 21:24:00,63.9,53.9,29.90,SSE,160,0.0,1.0,70,0.00,,,0.00,Wunderground v.1.15,2013-09-23 02:24:00,
2013-09-22 21:30:00,63.6,54.0,29.90,SSE,162,0.0,1.0,71,0.00,,,0.00,Wunderground v.1.15,2013-09-23 02:30:00,
2013-09-22 21:36:00,63.4,53.8,29.90,South,181,0.0,2.0,71,0.00,,,0.00,Wunderground v.1.15,2013-09-23 02:36:00,
2013-09-22 21:41:00,63.1,53.9,29.89,South,173,0.0,1.0,72,0.00,,,0.00,Wunderground v.1.15,2013-09-23 02:41:00,
2013-09-22 21:47:00,63.0,53.8,29.89,South,173,0.0,1.0,72,0.00,,,0.00,Wunderground v.1.15,2013-09-23 02:47:00,
2013-09-22 21:54:00,62.7,53.5,29.90,South,169,0.0,1.0,72,0.00,,,0.00,Wunderground v.1.15,2013-09-23 02:54:00,
2013-09-22 22:00:00,62.4,53.6,29.90,South,169,0.0,1.0,73,0.00,,,0.00,Wunderground v.1.15,2013-09-23 03:00:00,
2013-09-22 22:06:00,62.3,53.5,29.90,SSE,152,0.0,1.0,73,0.00,,,0.00,Wunderground v.1.15,2013-09-23 03:06:00,
2013-09-22 22:11:00,62.1,53.3,29.90,SSE,167,0.0,1.0,73,0.00,,,0.00,Wunderground v.1.15,2013-09-23 03:11:00,
2013-09-22 22:17:00,61.9,53.1,29.90,South,181,0.0,1.0,73,0.00,,,0.00,Wunderground v.1.15,2013-09-23 03:17:00,
2013-09-22 22:23:00,61.8,53.1,29.90,South,170,0.0,1.0,73,0.00,,,0.00,Wunderground v.1.15,2013-09-23 03:23:00,
2013-09-22 22:29:00,61.6,52.9,29.90,SSE,166,0.0,1.0,73,0.00,,,0.00,Wunderground v.1.15,2013-09-23 03:29:00,
2013-09-22 22:34:00,61.5,53.1,29.90,SSE,166,0.0,1.0,74,0.00,,,0.00,Wunderground v.1.15,2013-09-23 03:34:00,
2013-09-22 22:40:00,61.2,52.8,29.90,SSE,166,0.0,1.0,74,0.00,,,0.00,Wunderground v.1.15,2013-09-23 03:40:00,
2013-09-22 22:45:00,61.0,52.7,29.90,SSE,166,0.0,1.0,74,0.00,,,0.00,Wunderground v.1.15,2013-09-23 03:45:00,
2013-09-22 22:51:00,60.8,52.5,29.90,SSE,155,0.0,1.0,74,0.00,,,0.00,Wunderground v.1.15,2013-09-23 03:51:00,
2013-09-22 22:56:00,60.6,52.6,29.90,SSE,155,0.0,1.0,75,0.00,,,0.00,Wunderground v.1.15,2013-09-23 03:56:00,
2013-09-22 23:02:00,60.4,52.4,29.90,SSE,160,0.0,1.0,75,0.00,,,0.00,Wunderground v.1.15,2013-09-23 04:02:00,
2013-09-22 23:04:00,60.3,52.3,29.91,SSE,160,0.0,1.0,75,0.00,,,0.00,Wunderground v.1.15,2013-09-23 04:04:00,
2013-09-22 23:05:00,60.3,52.3,29.91,SSE,160,0.0,1.0,75,0.00,,,0.00,Wunderground v.1.15,2013-09-23 04:05:00,
2013-09-22 23:10:00,60.2,52.2,29.91,SSE,162,0.0,1.0,75,0.00,,,0.00,Wunderground v.1.15,2013-09-23 04:10:00,
2013-09-22 23:11:00,60.2,52.2,29.91,SSE,162,0.0,1.0,75,0.00,,,0.00,Wunderground v.1.15,2013-09-23 04:11:00,
2013-09-22 23:17:00,60.1,52.1,29.90,SSE,160,0.0,1.0,75,0.00,,,0.00,Wunderground v.1.15,2013-09-23 04:17:00,
2013-09-22 23:23:00,60.1,51.8,29.91,South,181,0.0,2.0,74,0.00,,,0.00,Wunderground v.1.15,2013-09-23 04:23:00,
2013-09-22 23:29:00,60.1,51.8,29.91,SSE,149,0.0,2.0,74,0.00,,,0.00,Wunderground v.1.15,2013-09-23 04:29:00,
2013-09-22 23:34:00,60.0,51.7,29.91,SSE,155,0.0,1.0,74,0.00,,,0.00,Wunderground v.1.15,2013-09-23 04:34:00,
2013-09-22 23:40:00,59.9,51.6,29.91,SSE,159,0.0,1.0,74,0.00,,,0.00,Wunderground v.1.15,2013-09-23 04:40:00,
2013-09-22 23:46:00,59.7,51.8,29.91,SSE,155,0.0,1.0,75,0.00,,,0.00,Wunderground v.1.15,2013-09-23 04:46:00,
2013-09-22 23:52:00,59.4,51.5,29.91,SSE,165,0.0,1.0,75,0.00,,,0.00,Wunderground v.1.15,2013-09-23 04:52:00,
2013-09-22 23:58:00,59.0,51.4,29.91,SSE,152,0.0,1.0,76,0.00,,,0.00,Wunderground v.1.15,2013-09-23 04:58:00,